ELEKTRO-L 3 (44903 NORAD) Tracking and Keplerian Element Data

This shows tracking and keplerian element data for the satellite.

Feedback or suggestion? Click here.




ElementValue
Catalog44903
NameELEKTRO-L 3
Epoch Orbit28
Epoch Day23.14809543
Epoch Year2020
RAAN282.3498
Inclination0.508
Eccentricity0.0027285
Argument of Perigee42.4607
Mean Anonmoly14.7984
Mean Motion1.00626645
Decay Rate-1E-07
L11 44903U 19095A 20023.14809543 -.00000010 00000-0 00000+0 0 9996
L22 44903 0.5080 282.3498 0027285 42.4607 14.7984 1.00626645 281

Live tracking and technical data element details for ELEKTRO-L 3 (NORAD 44903). ELEKTRO-L 3 can be tracked NOW for your location showing map with azimuth and elevation plus other details from your city location.

Track the satellite on the map from your city or location and see movement details for azimuth, elevation, latitude, longitude, range, height, and movement on the map or in text.







IsCatalogInMostPopularTable: catalog: 44903, numindb: 7
Update: records affected: 1



GetName: 44903 ELEKTRO-L 3

Hit Count: updated at: Fri, 24 Jan 2020 15:17:40 GMT